Regional Weather Roundup
Issued by NWS Sterling, VA

Current Version | Previous Version | Text Only | Print | Product List | Glossary On
Versions: 1 2 3 4 5 6 7 8 9 10 11 12 13 14 15 16 17 18 19 20 21 22 23 24 25 26 27
000
ASUS41 KLWX 181212
RWRLWX

REGIONAL WEATHER ROUNDUP
NATIONAL WEATHER SERVICE BALTIMORE MD/WASHINGTON DC
800 AM EDT FRI JUN 18 2021

Note: "FAIR" indicates few or no clouds below 12,000 feet
with no significant weather and/or obstructions to visibility.
 TC=TEMPERATURE CELSIUS

 * =Non NWS site. Station does not report precipitation (e.g. rain,
    snow, etc.), thunder, or fog.

DCZ001-MDZ009-015-VAZ040>042-051-053>054-181300-
WASHINGTON METRO

CITY           SKY/WX    TMP DP  RH WIND       PRES   REMARKS
WASHINGTON NAT MOSUNNY   67  54  63 S6        30.09S
DULLES         MOSUNNY   64  51  62 S8        30.07F
ANDREWS AFB    SUNNY     67  49  53 SW9       30.07S
FT BELVOIR     SUNNY     62  58  84 CALM      30.08S
QUANTICO       SUNNY     66  53  63 CALM      30.09F
COLLEGE PARK*  SUNNY     64  54  70 CALM      30.07S
LEESBURG*      SUNNY     61  52  72 CALM      30.09F
MANASSAS*      SUNNY     61  54  77 S5        30.08F
GAITHERSBURG*  SUNNY     68  50  52 SW3       30.08F

$$

MDZ006>007-011-014-181300-
BALTIMORE METRO

CITY           SKY/WX    TMP DP  RH WIND       PRES   REMARKS
BWI AIRPORT    MOSUNNY   68  51  54 SW6       30.07S
MARTIN STATE   SUNNY     68  54  60 CALM      30.08S
ANNAPOLIS      SUNNY     69  48  47 W7        30.08R
ABERDEEN*      SUNNY     64  59  82 CALM      30.06S
FORT MEADE*    SUNNY    N/A N/A N/A CALM      30.10S

$$

MDZ012-015-019>023-181300-
MARYLAND EASTERN SHORE

CITY           SKY/WX    TMP DP  RH WIND       PRES   REMARKS
OCEAN CITY     SUNNY     71  63  75 SW7       30.10S
SALISBURY      SUNNY     68  61  78 CALM      30.09S
CAMBRIDGE*     SUNNY     66  61  82 CALM      30.09S
EASTON*        SUNNY     68  63  83 S3        30.11F

$$

MDZ017>025-181300-
SOUTHERN MARYLAND

CITY           SKY/WX    TMP DP  RH WIND       PRES   REMARKS
PATUXENT RIVER SUNNY     69  58  67 SW9       30.08F
ST INIGOES     SUNNY     73  58  59 SW6       30.08F
LEONARDTOWN*   SUNNY     64  57  77 SW5       30.10F

$$

MDZ003>005-181300-
NORTH CENTRAL MARYLAND

CITY           SKY/WX    TMP DP  RH WIND       PRES   REMARKS
FREDERICK*     SUNNY     63  54  72 S6        30.06F
HAGERSTOWN APT SUNNY     62  48  60 VRB3      30.06F
WESTMINSTER*   SUNNY     70  50  49 SW3       30.05F

$$

MDZ501>502-181300-
WESTERN MARYLAND

CITY           SKY/WX    TMP DP  RH WIND       PRES   REMARKS
OAKLAND*       SUNNY     59  46  63 S6        30.11R
CUMBERLAND*    SUNNY     56  51  85 CALM      30.12S

$$

VAZ025>031-181300-
SHENANDOAH VALLEY

CITY           SKY/WX    TMP DP  RH WIND       PRES   REMARKS
WINCHESTER*    SUNNY     61  50  67 SW5       30.05
FRONT ROYAL*   SUNNY     59  50  72 SW5       30.06F
LURAY*         SUNNY     57  52  82 CALM      30.08F
NEW MARKET*    SUNNY     58  53  80 CALM      30.09F
STAUNTON*      SUNNY     57  51  81 CALM      30.12F
WAYNESBORO*    SUNNY     60  52  75 SW6       30.11F

$$

WVZ021-048>050-054>055-181300-
EASTERN WEST VIRGINIA PANHANDLE

CITY           SKY/WX    TMP DP  RH WIND       PRES   REMARKS
MARTINSBURG    SUNNY     57  50  77 CALM      30.05F
PETERSBURG*    SUNNY     56  55  96 CALM      30.09F

$$

VAZ036>039-050-181300-
CENTRAL FOOTHILLS

CITY           SKY/WX    TMP DP  RH WIND       PRES   REMARKS
CHARLOTTESVILL SUNNY     61  51  70 VRB3      30.08F
CULPEPER*      SUNNY     61  54  77 CALM      30.09F
ORANGE*        SUNNY     61  52  72 CALM      30.09F
GORDONSVILLE*  SUNNY     61  55  79 CALM      30.08F
WARRENTON*     SUNNY     63  54  72 CALM      30.08S

$$

VAZ055>057-181300-
NORTH AND CENTRAL PIEDMONT

CITY           SKY/WX    TMP DP  RH WIND       PRES   REMARKS
FREDERICKSBRG* SUNNY     62  53  71 CALM      30.08S
STAFFORD*      SUNNY     64  53  68 CALM      30.13S

$$

NCZ024-NYZ072-PAZ021-071-VAZ022-071-181300-
OTHER REGIONAL OBSERVATIONS

CITY           SKY/WX    TMP DP  RH WIND       PRES   REMARKS
NEW YORK CITY  SUNNY     69  44  40 VRB5      30.06S
PHILADELPHIA   MOSUNNY   65  56  72 SW8       30.06S
PITTSBURGH     PTSUNNY   64  50  60 VRB3      30.03R
ROANOKE        SUNNY     62  53  72 W5        30.14F
RICHMOND       MOSUNNY   66  57  72 S6        30.10F
RALEIGH        MOSUNNY   67  56  67 SE3       30.11F

$$

ANZ530>537-181300-
MARINE OBSERVATIONS

STATION/POSITION TIME  TEMP    WIND        PRES
                       AIR SEA DIR/SP/G
                 (UTC) (F)     (DEG/KT/KT) (MB)
THOMAS PT LIGHT  1200   69 73  210/ 14/ 17 1019.4R
TOLCHESTER       1130   69 75  210/  6/  8 1018.3F
GOOSES REEF      1154   67 73  240/ 16/ 17 1019.6F
COVE POINT       1130   67     220/ 12/ 17 1018.6F
BALT HARBOR      1130   65 72  260/  3/  6 1017.8S
BALT KEY BRIDGE  1130   65     250/  5/  6 1018.1F
WASH DC CHANNEL  1130   66 76  190/  4/  6 1018.6F
DAHLGREN         1130   63 77  230/  2/  4 1018.3F
LEWISETTA        1130   66 74  220/  7/  8 1019.2S
SOLOMONS ISLAND  1130   71 76  250/  4/  5 1018.8F
PINEY POINT      1130          280/  3/  6   N/A
CAMBRIDGE PIER   1130   68 77  220/  4/  6 1018.8F
BISHOPS HEAD     1130   72 74  230/ 12/ 13 1018.8F
CHESAPEAKE CITY  1130   64 76  240/  2/  3 1018.0F

$$




USA.gov is the U.S. government's official web portal to all federal, state and local government web resources and services.